Location: Poughquag
(41.6090°N, 73.6820°W)
Time: 12:42:08
(UTC-04:00)

Tiros 1 - Pass Details

Date: 02 June 2020
Orbit: 630 x 664 km, 48.4° (Epoch: 06 July)

Event Time Altitude Azimuth Distance (km) Brightness Sun altitude
Rises 16:12:27 0° 293° (WNW) 2,960 11.1 44.3°
Reaches altitude 10° 16:14:55 10° 301° (WNW) 2,042 10.4 43.8°
Maximum altitude 16:19:22 41° 12° (NNE) 933 8.2 43.0°
Drops below altitude 10° 16:23:46 10° 83° (E) 2,019 9.3 42.2°
Sets 16:26:12 0° 91° (E) 2,922 10.1 41.7°
